This demonstration page uses our WeatherBlox Daily Observations layout. Learn more.

36.17497, -115.13722

Hourly Observations for March 23, 2018

Temp ( °F °C ) Dew Point ( °F °C ) Humidity (%) Winds ( mph kmh ) Pressure ( in mb ) Visibility ( mi km ) Precip ( " mm )
12:53 am 00:53 Mostly Clear 59 15 46 7.8 62 62 WSW 12 19 29.95 1014 10 16.0934 0.01 0.254
1:53 am 01:53 Partly Cloudy with Light Rain 58 14.4 44 6.7 60 60 WSW 18 30 29.93 1013 10 16.0934 0 0.0254
2:53 am 02:53 Clear 59 15 42 5.6 54 54 W 13 20 29.94 1014 10 16.0934 0 0.0254
3:53 am 03:53 Mostly Clear 59 15 40 4.4 49 49 WSW 15 24 29.9 1012 10 16.0934 0 0
4:53 am 04:53 Clear 58 14.4 39 3.9 50 50 W 8 13 29.93 1014 10 16.0934 0 0
5:53 am 05:53 Clear 58 14.4 37 2.8 46 46 WSW 12 19 29.98 1015 10 16.0934 0 0
6:00 am 06:00 Mostly Clear 57 13.9 38 3.3 49 49 WSW 9 15 29.94 1014 10 16.0934 0 0
6:53 am 06:53 Sunny 57 13.9 37 2.8 47 47 W 6 9 30.02 1017 10 16.0934 0 0
7:53 am 07:53 Sunny 57 13.9 40 4.4 53 53 ENE 3 6 30.05 1018 10 16.0934 0 0
8:53 am 08:53 Sunny 60 15.6 41 5 50 50 E 7 11 30.08 1019 10 16.0934 0 0
9:53 am 09:53 Sunny 63 17.2 40 4.4 43 43 N 8 13 30.09 1019 10 16.0934 0 0
10:07 am 10:07 Sunny 63 17.2 39 3.9 41 41 NNW 8 13 30.03 1017 10 16.0934 0 0
10:53 am 10:53 Sunny 64 17.8 40 4.4 41 41 VRB 3 6 30.1 1019 10 16.0934 0 0
11:53 am 11:53 Sunny 65 18.3 38 3.3 37 37 Calm 30.09 1019 10 16.0934 0 0
12:53 pm 12:53 Sunny 67 19.4 35 1.7 31 31 SSE 9 15 30.07 1018 10 16.0934 0 0
1:53 pm 13:53 Sunny 69 20.6 34 1.1 27 27 SE 8 13 30.04 1017 10 16.0934 0 0
2:53 pm 14:53 Sunny 70 21.1 31 -0.6 23 23 S 10 17 30.01 1016 10 16.0934 0 0
3:53 pm 15:53 Sunny 71 21.7 31 -0.6 23 23 SSE 9 15 29.98 1015 10 16.0934 0 0
4:53 pm 16:53 Sunny 72 22.2 29 -1.7 20 20 S 12 19 29.96 1015 10 16.0934 0 0
5:53 pm 17:53 Sunny 72 22.2 25 -3.9 17 17 S 13 20 29.94 1014 10 16.0934 0 0
6:53 pm 18:53 Sunny 71 21.7 23 -5 16 16 S 10 17 29.93 1014 10 16.0934 0 0
7:53 pm 19:53 Clear 69 20.6 28 -2.2 22 22 WSW 7 11 29.93 1014 10 16.0934 0 0
8:53 pm 20:53 Clear 65 18.3 29 -1.7 26 26 SW 12 19 29.94 1014 10 16.0934 0 0
9:53 pm 21:53 Clear 64 17.8 21 -6.1 19 19 SSW 13 20 29.94 1014 10 16.0934 0 0
10:53 pm 22:53 Clear 63 17.2 19 -7.2 18 18 SSW 12 19 29.93 1014 10 16.0934 0 0
11:53 pm 23:53 Clear 62 16.7 18 -7.8 18 18 SW 7 11 29.92 1013 10 16.0934 0 0

Powered by AerisWeather